Dewpoint
61 61 61 62 61 61 61 61 61 61 61 62 61 60 61 61 60 53 37 49 60 64 63 48 40 40 41 41 42 38 27 24 28 29 29 30 29 31 35 31 31 30 32 46 47
61 62 62 61 62 62 61 61 61 61 61 61 61 59 60 60 49 40 51 61 63 64 49 48 42 38 35 38 39 35 25 24 32 29 28 30 33 33 32 31 31 30 31 32 33
61 61 62 62 62 61 61 61 61 61 61 61 60 59 60 58 39 43 61 63 64 59 52 52 48 38 34 36 35 35 29 32 35 36 36 34 34 35 32 31 31 30 30 32 31
61 61 62 62 61 61 61 61 61 61 61 60 59 60 60 51 34 45 61 64 64 57 43 37 36 34 34 32 34 32 34 35 36 37 35 33 35 33 34 33 34 34 33 33 31
61 61 62 61 60 60 61 61 61 61 60 59 57 60 53 40 41 45 62 54 46 42 38 36 33 35 33 33 33 32 33 34 35 36 35 35 34 34 34 34 34 34 33 33 33
61 62 61 60 60 60 60 60 60 61 59 57 58 59 42 36 39 41 40 41 40 40 40 39 36 36 34 34 32 34 35 35 35 34 35 33 33 33 32 31 29 30 30 32 39
61 61 60 59 59 59 59 59 59 58 57 57 58 50 35 35 39 32 32 40 40 41 40 42 41 34 36 31 36 36 32 32 31 32 32 34 29 31 31 29 28 28 29 43 48
60 59 59 58 58 59 59 58 56 55 56 56 57 39 32 38 37 32 31 33 34 38 42 43 41 38 35 36 34 32 30 28 30 31 29 30 27 30 29 29 29 29 31 47 47
58 58 58 57 58 58 57 57 56 54 53 52 38 34 32 41 31 32 31 30 33 34 42 41 40 38 36 34 28 31 28 30 30 31 30 28 27 29 30 29 26 31 34 45 42
58 58 57 57 58 57 55 55 53 48 41 35 34 29 30 30 33 32 31 33 31 35 35 40 39 33 32 32 25 30 31 32 29 30 29 28 28 29 29 28 30 41 41 33 25
57 57 56 57 58 55 48 42 40 37 36 32 33 31 31 33 33 29 30 30 32 30 28 31 27 26 29 33 34 34 33 29 29 29 24 27 26 26 26 32 38 34 26 22 22
57 57 57 57 58 54 45 40 40 40 31 35 35 35 35 33 28 28 31 28 28 26 27 23 23 24 25 26 25 23 24 23 25 25 20 22 21 24 25 23 26 22 22 24 29
57 57 57 57 55 49 44 44 45 37 32 33 35 33 34 35 33 27 28 26 27 23 24 22 24 25 24 22 19 22 19 20 19 22 23 21 19 23 22 20 23 26 27 29 30
56 57 56 56 48 47 44 46 46 38 28 29 30 32 30 30 25 28 27 27 21 20 23 20 24 23 21 20 20 19 21 22 18 16 13 17 12 18 20 18 23 27 29 30 31
56 56 56 53 47 44 45 45 42 35 12 27 26 31 26 24 25 25 27 24 22 22 20 18 22 21 19 19 20 19 22 20 19 16 19 17 17 18 23 19 20 27 28 29 30
55 56 55 51 46 46 45 46 37 19 20 26 29 27 23 27 26 28 27 28 26 23 22 23 24 22 20 21 21 21 17 17 18 19 11 16 16 15 19 23 21 26 28 29 30
55 55 53 47 40 43 45 38 20 19 28 27 28 27 26 26 25 26 25 25 24 20 20 22 22 23 23 21 23 19 15 12 5 2 -0 17 15 15 22 25 26 26 27 29 31
55 52 51 43 43 43 34 21 19 29 28 31 28 24 26 27 25 24 23 24 27 24 21 20 16 23 25 21 19 18 15 11 9 10 6 13 13 18 23 28 29 29 29 31 30
51 45 41 41 42 41 24 23 27 29 30 28 27 23 23 27 25 22 24 25 27 26 22 22 21 25 26 25 21 18 16 18 16 16 13 15 16 22 27 29 29 28 29 26 25
47 41 39 42 41 35 30 29 28 31 31 28 24 26 22 26 24 24 21 28 28 29 26 24 21 24 28 23 22 18 20 14 15 5 10 12 9 10 24 28 27 29 27 26 25
42 32 38 40 37 33 29 29 30 33 32 28 27 26 27 27 27 25 25 29 31 29 27 26 23 21 23 20 18 21 18 18 17 16 6 6 6 20 16 16 18 23 27 25 24
40 23 40 38 32 32 30 33 37 34 34 31 31 30 29 28 25 25 26 28 31 29 26 27 24 19 20 22 23 24 20 18 16 9 14 12 12 15 16 26 26 26 28 29 27
38 37 38 35 28 28 31 32 31 32 33 32 32 31 30 27 20 27 27 31 29 27 24 27 22 17 13 11 15 17 20 20 21 19 16 12 9 15 18 20 21 25 29 31 30
35 27 31 34 32 29 27 29 30 30 32 30 30 27 25 24 26 25 24 29 27 28 29 28 25 20 12 13 22 24 23 23 21 16 15 15 15 17 20 21 21 20 25 26 22
35 34 31 23 29 28 27 28 26 22 28 28 26 24 23 17 22 22 24 21 24 27 28 27 19 21 24 25 23 22 20 19 19 20 18 16 18 20 21 22 20 23 22 20 25
33 30 32 32 27 22 26 24 25 27 26 23 25 24 23 21 21 20 21 23 23 23 20 24 17 20 19 19 16 17 17 18 18 18 19 19 19 22 22 16 18 22 26 25 26
35 33 29 31 24 19 21 26 26 24 24 24 23 23 21 22 28 28 26 26 25 23 21 21 20 15 12 14 17 15 18 18 18 19 20 15 13 7 15 17 22 25 25 25 25
Lifted_Index
10 10 10 10 10 9 9 9 9 9 9 9 9 10 10 10 10 10 10 9 7 6 8 10 10 10 10 9 9 9 7 6 6 7 7 8 8 7 8 8 8 8 7 6 4
10 10 10 10 9 9 9 9 9 9 9 9 9 10 10 10 10 10 10 8 7 7 8 9 10 10 9 9 9 8 7 6 7 8 8 8 8 7 7 8 8 8 8 6 5
10 10 10 10 10 10 9 9 9 9 9 9 10 10 10 10 10 10 9 8 7 8 9 10 10 9 9 9 8 8 7 7 8 8 8 8 8 8 7 7 8 8 8 8 8
10 10 10 10 10 10 10 10 10 9 10 10 11 11 10 9 9 9 9 8 8 9 10 10 10 9 8 8 8 8 8 8 8 8 8 8 8 7 7 8 8 8 8 8 9
10 10 10 10 10 10 10 10 10 10 10 11 11 11 10 9 9 10 10 10 10 10 10 10 9 9 8 8 8 8 8 8 8 8 8 8 7 7 7 8 8 8 8 8 8
10 10 10 10 11 11 11 11 11 11 11 11 11 11 10 9 10 11 11 11 11 10 10 9 9 9 8 8 8 8 7 7 8 7 7 7 7 7 7 7 8 8 8 8 8
10 10 10 11 11 12 12 12 12 11 11 11 11 10 10 10 11 11 11 11 10 10 9 9 9 8 8 8 8 7 7 6 7 7 7 6 6 7 7 8 8 8 8 7 7
11 11 11 11 12 13 13 13 13 12 11 10 10 10 10 11 11 11 11 10 9 9 8 8 8 8 8 7 7 6 5 5 6 7 7 7 6 7 8 8 8 8 8 8 7
12 12 12 12 13 14 14 13 13 12 11 11 10 10 10 11 11 11 11 10 9 9 8 8 7 7 7 6 5 5 4 4 5 7 7 7 6 7 8 9 9 9 9 8 8
12 12 13 13 14 14 14 13 12 12 11 11 10 9 10 10 11 11 11 10 10 9 8 8 7 7 7 6 5 4 4 4 5 7 7 6 7 8 10 10 10 10 9 9 9
13 13 14 14 14 14 14 12 12 11 11 10 10 10 10 11 11 11 11 10 9 8 8 7 7 6 7 7 6 5 5 5 6 8 8 7 7 9 10 10 10 10 10 10 9
14 14 14 14 14 14 13 12 12 11 10 10 11 11 11 11 10 10 10 9 8 7 7 6 6 7 8 8 7 6 5 5 7 9 9 8 8 9 10 10 10 11 10 10 9
14 14 14 14 13 13 13 13 13 12 10 10 10 11 10 10 9 9 10 9 8 7 7 6 7 8 9 8 7 7 6 6 7 8 9 8 7 8 10 11 11 11 10 10 10
14 14 14 13 13 13 13 13 13 11 8 8 10 10 10 9 9 9 10 9 8 7 7 7 8 8 8 8 7 7 8 8 7 7 7 7 6 7 10 11 11 11 11 10 10
14 14 13 13 13 13 13 13 12 9 6 7 9 10 9 9 9 9 10 10 9 8 8 8 8 9 8 8 9 9 10 9 8 6 6 6 5 7 9 11 10 11 11 10 10
14 13 13 13 13 14 14 12 10 7 6 7 8 8 8 8 8 9 10 10 9 8 8 8 9 10 10 10 11 11 10 8 7 6 5 6 7 7 9 10 10 10 9 9 8
14 13 13 13 13 14 13 11 8 6 6 7 7 7 7 7 8 9 9 9 8 7 7 7 9 11 11 11 11 11 9 6 4 3 4 7 8 8 9 9 8 8 7 7 7
13 13 13 13 14 14 12 9 7 6 7 7 7 7 7 7 8 8 8 8 9 8 6 5 7 10 12 12 12 11 10 7 4 3 5 7 8 8 8 7 6 6 5 5 6
12 12 13 13 14 13 10 8 7 7 8 7 7 7 6 7 8 8 9 9 11 11 8 6 7 10 13 12 12 12 11 9 7 5 5 6 7 7 6 5 4 4 4 4 4
11 11 12 13 13 11 9 7 8 9 9 8 7 6 6 6 7 8 9 11 12 12 11 9 9 11 13 12 12 11 10 9 7 5 3 4 5 6 5 4 4 3 3 3 3
10 9 11 13 12 10 8 8 9 10 10 9 8 7 7 7 7 7 9 11 13 13 13 12 10 10 12 12 11 11 9 8 6 5 3 3 4 5 5 4 4 3 3 2 2
8 9 12 13 11 9 8 9 10 10 11 11 10 9 9 8 8 8 9 12 13 13 12 13 11 9 10 11 11 9 8 7 6 5 4 3 4 4 4 4 3 3 2 2 1
8 9 12 12 10 8 8 9 10 11 11 11 11 11 11 10 9 10 11 12 13 13 13 13 12 9 8 9 9 8 7 6 5 4 4 3 3 4 3 3 3 3 2 2 2
10 10 11 12 10 9 8 8 9 11 12 12 12 12 11 10 10 11 12 13 14 13 13 13 11 9 7 7 7 7 6 5 5 4 4 3 3 3 2 2 3 3 2 2 2
11 11 11 11 10 10 9 9 9 10 12 13 12 12 12 11 11 12 13 14 14 14 13 12 10 8 7 7 6 6 6 5 4 4 3 3 2 2 2 2 2 2 2 2 2
12 12 12 11 11 10 10 10 10 11 13 13 13 13 13 12 12 13 14 15 15 14 13 11 9 7 7 6 6 5 5 4 4 3 2 2 1 1 2 2 2 2 2 2 2
14 14 13 12 11 10 10 10 11 12 14 14 14 14 14 14 14 15 15 15 15 14 12 10 8 6 5 6 5 4 4 4 3 2 1 1 1 1 2 2 2 2 2 2 3